Weather History for KBGR - March, 2012

Change the Weather History Date:

Sunday, March 11, 2012

  Actual Average Record
Temperature  
Mean Temperature 35 °F 28 °F  
Max Temperature 49 °F 38 °F 65 °F (1977)
Min Temperature 21 °F 18 °F -12 °F (2005)
Degree Days  
Heating Degree Days 30 37  
Month to date heating degree days 391 422  
Since 1 July heating degree days 5230 6068  
Cooling Degree Days 0 0  
Month to date cooling degree days 0 0  
Year to date cooling degree days 0 0  
Moisture  
Dew Point 22 °F    
Average Humidity 59    
Maximum Humidity 84    
Minimum Humidity 34    
Precipitation  
Precipitation 0.00 in 0.10 in 1.38 in (1992)
Month to date precipitation 0.82 1.09  
Year to date precipitation 4.32 6.50  
Snow  
Snow 0.00 in 0.40 in 8.30 in (1971)
Month to date snowfall 5.2 5.0  
Since 1 July snowfall 46.7 55.7  
Snow Depth 0.00 in    
Sea Level Pressure  
Sea Level Pressure 30.30 in    
Wind  
Wind Speed 4 mph (SSW)    
Max Wind Speed 15 mph    
Max Gust Speed 21 mph    
Visibility 10 miles    
Events      
T = Trace of Precipitation, MM = Missing Value Source: NWS Daily Summary

Daily Weather History Graph

Daily Weather History Graph

Search for Another Location

Airport or City:

Trip Planner

Search our weather history database for the weather conditions in past years. The results will help you decide how hot, cold, wet, or windy it might be!

Date:

Astronomy

Mar. 11, 2012 Rise Set
Actual Time 6:54 AM EDT 6:36 PM EDT
Civil Twilight 6:25 AM EDT 7:05 PM EDT
Nautical Twilight 5:51 AM EDT 7:39 PM EDT
Astronomical Twilight 5:16 AM EDT 8:14 PM EDT
Moon 11:11 PM EDT (3/11) 8:15 AM EDT (3/11)
Length of Visible Light 12h 40m
Length of Day
11h 42m
Waning Gibbous, 85% of the Moon is Illuminated
Mar 11
Waning Gibbous
Mar 14
Last Quarter
Mar 22
New
Mar 30
First Quarter
Apr 6
Full

Hourly Weather History & Observations

Time (EDT) Temp. Windchill Dew Point Humidity Pressure Visibility Wind Dir Wind Speed Gust Speed Precip Events Conditions
12:53 AM 24.1 °F - 17.1 °F 75% 30.47 in 10.0 mi Calm Calm - N/A   Clear
1:53 AM 23.0 °F - 17.1 °F 78% 30.46 in 10.0 mi Calm Calm - N/A   Partly Cloudy
3:53 AM 21.0 °F - 16.0 °F 81% 30.43 in 10.0 mi Calm Calm - N/A   Scattered Clouds
4:53 AM 21.9 °F - 18.0 °F 85% 30.42 in 10.0 mi Calm Calm - N/A   Scattered Clouds
5:53 AM 26.1 °F 21.9 °F 19.9 °F 78% 30.42 in 10.0 mi South 3.5 mph - N/A   Overcast
6:53 AM 28.0 °F 21.7 °F 21.9 °F 78% 30.41 in 10.0 mi South 5.8 mph - N/A   Overcast
7:53 AM 30.2 °F 22.6 °F 21.2 °F 69% 30.37 in 10.0 mi South 8.1 mph - N/A   Overcast
8:53 AM 33.1 °F 28.7 °F 24.1 °F 70% 30.36 in 10.0 mi SSW 4.6 mph - N/A   Mostly Cloudy
9:53 AM 37.0 °F 29.8 °F 26.1 °F 65% 30.36 in 10.0 mi SSW 10.4 mph - N/A   Overcast
10:53 AM 39.0 °F 32.8 °F 21.0 °F 49% 30.34 in 10.0 mi SW 9.2 mph - N/A   Overcast
11:53 AM 41.0 °F 34.3 °F 21.9 °F 47% 30.31 in 10.0 mi SSW 11.5 mph - N/A   Overcast
12:53 PM 44.1 °F 38.1 °F 19.9 °F 38% 30.29 in 10.0 mi South 11.5 mph 17.3 mph N/A   Partly Cloudy
1:53 PM 46.0 °F 42.5 °F 19.9 °F 35% 30.25 in 10.0 mi SW 6.9 mph 17.3 mph N/A   Clear
2:53 PM 48.0 °F - 21.9 °F 36% 30.23 in 10.0 mi SSW 11.5 mph - N/A   Clear
3:53 PM 48.9 °F - 23.0 °F 36% 30.22 in 10.0 mi West 10.4 mph 18.4 mph N/A   Clear
4:53 PM 48.9 °F - 23.0 °F 36% 30.21 in 10.0 mi WSW 5.8 mph - N/A   Clear
5:53 PM 44.1 °F 40.8 °F 27.0 °F 51% 30.20 in 10.0 mi South 5.8 mph - N/A   Clear
6:53 PM 42.1 °F 37.1 °F 26.1 °F 53% 30.20 in 10.0 mi South 8.1 mph - N/A   Clear
7:53 PM 39.0 °F 34.0 °F 26.1 °F 60% 30.21 in 10.0 mi South 6.9 mph - N/A   Scattered Clouds
8:53 PM 39.0 °F 34.8 °F 24.1 °F 55% 30.20 in 10.0 mi South 5.8 mph - N/A   Scattered Clouds
9:53 PM 36.0 °F 31.1 °F 25.0 °F 64% 30.19 in 10.0 mi South 5.8 mph - N/A   Scattered Clouds
10:53 PM 37.0 °F 33.3 °F 25.0 °F 62% 30.19 in 10.0 mi South 4.6 mph - N/A   Scattered Clouds
11:53 PM 37.0 °F 32.4 °F 27.0 °F 67% 30.17 in 10.0 mi SSW 5.8 mph - N/A   Clear
12:53 AM 35.1 °F 31.0 °F 27.0 °F 72% 30.17 in 10.0 mi SW 4.6 mph - N/A   Clear